Orbital Elements at Epoch 2459200.5 (2020-Dec-17.0) TDB
Reference: JPL 36 (heliocentric ecliptic J2000)
Element | Value | Uncertainty (1-sigma) | Units |
e | .04907032600687401 | 2.6909e-08 | |
a | 2.837882918938539 | 1.0709e-08 | au |
q | 2.698627078936886 | 7.4754e-08 | au |
i | 3.248350018576851 | 2.9497e-06 | deg |
node | 118.8375337441395 | 6.8032e-05 | deg |
peri | 179.5878985669611 | 7.9192e-05 | deg |
M | 86.49464910681451 | 4.0415e-05 | deg |
tp | 2458780.956614604845 (2019-Oct-24.45661460) | 0.00019601 | TDB |
period | 1746.184536291234 4.78 | 9.8843e-06 2.706e-08 | d yr |
n | .206163777377512 | 1.167e-09 | deg/d |
Q | 2.977138758940193 | 1.1235e-08 | au |
|
| | Orbit Determination Parameters
Additional Information
|